contact:dominique.lefevre@mio.osupytheas.fr, maurice.libes@osupytheas.fr, didier.mallarino@osupytheas.fr
Project:EMSO http://www.emso-fr.org/EMSO-France
Depth: 2436.0 m
Title:EMSO Ligure Ouest : Data MII capteur CSTAR
DateTime,Latitude,Longitude,Instrument_Serial,Reference_Counts,Signal_Counts,Corrected_Signal_raw_counts,Calculated_Beam_c_inverse_meters,Internal_thermistor_counts
DateTime,Latitude,Longitude,Instrument_Serial,Reference_Counts,Signal_Counts,Corrected_Signal_raw_counts,Calculated_Beam_c_inverse_meters,Internal_thermistor_counts
2022-03-09T00:01:22,42.805,6.029,CST-1368DR,4859,5824,12794,0.797,551
2022-03-09T00:04:23,42.805,6.029,CST-1368DR,4859,5823,12790,0.799,551
2022-03-09T00:07:25,42.805,6.029,CST-1368DR,4859,5835,12816,0.790,551
2022-03-09T00:10:26,42.805,6.029,CST-1368DR,4859,5823,12792,0.798,551
2022-03-09T00:13:28,42.805,6.029,CST-1368DR,4859,5826,12798,0.796,551
2022-03-09T00:16:29,42.805,6.029,CST-1368DR,4859,5828,12801,0.795,551
2022-03-09T00:19:31,42.805,6.029,CST-1368DR,4859,5817,12778,0.802,551
2022-03-09T00:22:33,42.805,6.029,CST-1368DR,4859,5828,12803,0.794,551
2022-03-09T00:25:34,42.805,6.029,CST-1368DR,4859,5825,12796,0.797,551
2022-03-09T00:28:36,42.805,6.029,CST-1368DR,4858,5823,12794,0.797,551
2022-03-09T00:31:37,42.805,6.029,CST-1368DR,4859,5822,12789,0.799,551
2022-03-09T00:34:39,42.805,6.029,CST-1368DR,4859,5814,12770,0.805,551
2022-03-09T00:37:41,42.805,6.029,CST-1368DR,4859,5829,12803,0.794,551
2022-03-09T00:40:42,42.805,6.029,CST-1368DR,4859,5832,12810,0.792,550
2022-03-09T00:43:44,42.805,6.029,CST-1368DR,4859,5829,12803,0.794,551
2022-03-09T00:46:45,42.805,6.029,CST-1368DR,4858,5820,12786,0.800,551
2022-03-09T00:49:47,42.805,6.029,CST-1368DR,4858,5825,12798,0.796,550
2022-03-09T00:52:48,42.805,6.029,CST-1368DR,4858,5821,12789,0.799,551
2022-03-09T00:55:50,42.805,6.029,CST-1368DR,4858,5824,12796,0.797,551
2022-03-09T00:58:52,42.805,6.029,CST-1368DR,4859,5824,12793,0.798,551
2022-03-09T01:01:53,42.805,6.029,CST-1368DR,4858,5823,12793,0.798,551
2022-03-09T01:04:55,42.805,6.029,CST-1368DR,4859,5826,12796,0.797,551
2022-03-09T01:07:56,42.805,6.029,CST-1368DR,4859,5829,12804,0.794,551
2022-03-09T01:10:58,42.805,6.029,CST-1368DR,4858,5816,12778,0.802,551
2022-03-09T01:13:59,42.805,6.029,CST-1368DR,4859,5831,12808,0.793,551
2022-03-09T01:17:01,42.805,6.029,CST-1368DR,4859,5821,12786,0.800,551
2022-03-09T01:20:03,42.805,6.029,CST-1368DR,4859,5816,12776,0.803,551
2022-03-09T01:23:04,42.805,6.029,CST-1368DR,4858,5820,12786,0.800,550
2022-03-09T01:26:06,42.805,6.029,CST-1368DR,4858,5810,12765,0.806,551
2022-03-09T01:29:07,42.805,6.029,CST-1368DR,4858,5816,12779,0.802,551
2022-03-09T01:32:09,42.805,6.029,CST-1368DR,4858,5814,12774,0.804,551
2022-03-09T01:35:11,42.805,6.029,CST-1368DR,4858,5813,12771,0.804,551
2022-03-09T01:38:12,42.805,6.029,CST-1368DR,4858,5811,12768,0.805,551
2022-03-09T01:41:14,42.805,6.029,CST-1368DR,4858,5812,12769,0.805,551
2022-03-09T01:44:15,42.805,6.029,CST-1368DR,4859,5827,12799,0.796,551
2022-03-09T01:47:17,42.805,6.029,CST-1368DR,4858,5813,12772,0.804,551
2022-03-09T01:50:18,42.805,6.029,CST-1368DR,4858,5816,12778,0.802,551
2022-03-09T01:53:20,42.805,6.029,CST-1368DR,4858,5817,12780,0.802,551
2022-03-09T01:56:22,42.805,6.029,CST-1368DR,4858,5822,12791,0.798,551
2022-03-09T01:59:23,42.805,6.029,CST-1368DR,4858,5814,12773,0.804,550
2022-03-09T02:02:25,42.805,6.029,CST-1368DR,4858,5812,12770,0.805,551
2022-03-09T02:05:26,42.805,6.029,CST-1368DR,4858,5815,12776,0.803,551
2022-03-09T02:08:28,42.805,6.029,CST-1368DR,4858,5808,12761,0.808,551
2022-03-09T02:11:30,42.805,6.029,CST-1368DR,4858,5822,12792,0.798,551
2022-03-09T02:14:31,42.805,6.029,CST-1368DR,4858,5807,12758,0.809,551
2022-03-09T02:17:33,42.805,6.029,CST-1368DR,4858,5808,12761,0.808,551
2022-03-09T02:20:34,42.805,6.029,CST-1368DR,4858,5812,12770,0.805,551
2022-03-09T02:23:36,42.805,6.029,CST-1368DR,4858,5799,12740,0.814,551
2022-03-09T02:26:37,42.805,6.029,CST-1368DR,4858,5816,12779,0.802,551
2022-03-09T02:29:39,42.805,6.029,CST-1368DR,4858,5819,12784,0.800,551
2022-03-09T02:32:41,42.805,6.029,CST-1368DR,4858,5803,12750,0.811,551
2022-03-09T02:40:06,42.805,6.029,CST-1368DR,4858,5803,12750,0.811,551
2022-03-09T02:43:08,42.805,6.029,CST-1368DR,4858,5821,12789,0.799,551
2022-03-09T02:46:10,42.805,6.029,CST-1368DR,4858,5826,12800,0.795,551
2022-03-09T02:49:11,42.805,6.029,CST-1368DR,4858,5822,12790,0.799,551
2022-03-09T02:52:13,42.805,6.029,CST-1368DR,4858,5827,12801,0.795,551
2022-03-09T02:55:14,42.805,6.029,CST-1368DR,4859,5820,12785,0.800,551
2022-03-09T02:58:16,42.805,6.029,CST-1368DR,4858,5814,12774,0.804,551
2022-03-09T03:01:18,42.805,6.029,CST-1368DR,4858,5824,12796,0.797,551
2022-03-09T03:04:19,42.805,6.029,CST-1368DR,4858,5827,12803,0.794,551
2022-03-09T03:07:21,42.805,6.029,CST-1368DR,4858,5819,12784,0.800,551
2022-03-09T03:10:22,42.805,6.029,CST-1368DR,4858,5818,12783,0.801,551
2022-03-09T03:13:24,42.805,6.029,CST-1368DR,4858,5823,12792,0.798,551
2022-03-09T03:16:25,42.805,6.029,CST-1368DR,4858,5833,12815,0.791,551
2022-03-09T03:19:27,42.805,6.029,CST-1368DR,4858,5835,12820,0.789,551
2022-03-09T03:22:29,42.805,6.029,CST-1368DR,4858,5830,12808,0.793,551
2022-03-09T03:25:30,42.805,6.029,CST-1368DR,4858,5838,12825,0.788,551
2022-03-09T03:28:32,42.805,6.029,CST-1368DR,4858,5826,12801,0.795,551
2022-03-09T03:31:33,42.805,6.029,CST-1368DR,4858,5819,12784,0.800,551
2022-03-09T03:34:35,42.805,6.029,CST-1368DR,4858,5827,12801,0.795,551
2022-03-09T03:37:36,42.805,6.029,CST-1368DR,4858,5837,12823,0.788,551
2022-03-09T03:40:38,42.805,6.029,CST-1368DR,4858,5828,12803,0.794,551
2022-03-09T03:43:40,42.805,6.029,CST-1368DR,4858,5833,12815,0.791,550
2022-03-09T03:46:41,42.805,6.029,CST-1368DR,4858,5842,12835,0.784,551
2022-03-09T03:49:43,42.805,6.029,CST-1368DR,4858,5835,12820,0.789,551
2022-03-09T03:52:44,42.805,6.029,CST-1368DR,4858,5817,12779,0.802,551
2022-03-09T03:55:46,42.805,6.029,CST-1368DR,4858,5813,12772,0.804,551
2022-03-09T03:58:48,42.805,6.029,CST-1368DR,4858,5832,12813,0.791,551
2022-03-09T04:01:49,42.805,6.029,CST-1368DR,4858,5822,12791,0.798,551
2022-03-09T04:04:51,42.805,6.029,CST-1368DR,4858,5831,12811,0.792,551
2022-03-09T04:07:52,42.805,6.029,CST-1368DR,4858,5813,12772,0.804,551
2022-03-09T04:10:54,42.805,6.029,CST-1368DR,4858,5829,12807,0.793,551
2022-03-09T04:13:55,42.805,6.029,CST-1368DR,4858,5819,12785,0.800,550
2022-03-09T04:16:57,42.805,6.029,CST-1368DR,4858,5810,12765,0.806,551
2022-03-09T04:19:59,42.805,6.029,CST-1368DR,4858,5816,12778,0.802,551
2022-03-09T04:23:00,42.805,6.029,CST-1368DR,4858,5798,12738,0.815,551
2022-03-09T04:26:02,42.805,6.029,CST-1368DR,4858,5794,12730,0.817,551
2022-03-09T04:29:03,42.805,6.029,CST-1368DR,4858,5826,12800,0.795,551
2022-03-09T04:32:05,42.805,6.029,CST-1368DR,4858,5819,12785,0.800,551
2022-03-09T04:35:07,42.805,6.029,CST-1368DR,4858,5843,12838,0.784,551
2022-03-09T04:38:08,42.805,6.029,CST-1368DR,4858,5802,12747,0.812,551
2022-03-09T04:41:10,42.805,6.029,CST-1368DR,4858,5828,12805,0.794,551
2022-03-09T04:44:11,42.805,6.029,CST-1368DR,4858,5826,12801,0.795,551
2022-03-09T04:47:13,42.805,6.029,CST-1368DR,4858,5826,12799,0.796,551
2022-03-09T04:50:14,42.805,6.029,CST-1368DR,4858,5834,12818,0.790,551
2022-03-09T04:53:16,42.805,6.029,CST-1368DR,4858,5827,12802,0.795,551
2022-03-09T04:56:18,42.805,6.029,CST-1368DR,4858,5838,12827,0.787,551
2022-03-09T04:59:19,42.805,6.029,CST-1368DR,4858,5824,12795,0.797,551
2022-03-09T05:02:21,42.805,6.029,CST-1368DR,4858,5837,12824,0.788,551
2022-03-09T05:05:22,42.805,6.029,CST-1368DR,4858,5827,12802,0.795,551
2022-03-09T05:08:24,42.805,6.029,CST-1368DR,4858,5840,12830,0.786,551
2022-03-09T05:11:25,42.805,6.029,CST-1368DR,4858,5809,12763,0.807,551
2022-03-09T05:14:27,42.805,6.029,CST-1368DR,4858,5825,12798,0.796,551
2022-03-09T05:17:29,42.805,6.029,CST-1368DR,4858,5817,12781,0.801,551
2022-03-09T05:20:30,42.805,6.029,CST-1368DR,4858,5830,12809,0.793,551
2022-03-09T05:23:32,42.805,6.029,CST-1368DR,4858,5836,12822,0.789,551
2022-03-09T05:26:33,42.805,6.029,CST-1368DR,4858,5849,12851,0.779,551
2022-03-09T05:29:35,42.805,6.029,CST-1368DR,4858,5827,12802,0.795,551
2022-03-09T05:32:37,42.805,6.029,CST-1368DR,4858,5814,12774,0.804,551
2022-03-09T05:35:38,42.805,6.029,CST-1368DR,4858,5848,12848,0.780,551
2022-03-09T05:38:40,42.805,6.029,CST-1368DR,4858,5851,12854,0.779,551
2022-03-09T05:41:41,42.805,6.029,CST-1368DR,4858,5824,12796,0.797,551
2022-03-09T05:44:43,42.805,6.029,CST-1368DR,4858,5825,12798,0.796,551
2022-03-09T05:47:44,42.805,6.029,CST-1368DR,4858,5819,12785,0.800,551
2022-03-09T05:50:46,42.805,6.029,CST-1368DR,4858,5795,12733,0.816,551
2022-03-09T05:53:48,42.805,6.029,CST-1368DR,4858,5820,12787,0.799,551
2022-03-09T05:56:49,42.805,6.029,CST-1368DR,4858,5834,12818,0.790,551
2022-03-09T05:59:51,42.805,6.029,CST-1368DR,4858,5838,12825,0.788,551
2022-03-09T06:02:52,42.805,6.029,CST-1368DR,4858,5829,12807,0.793,551
2022-03-09T06:05:54,42.805,6.029,CST-1368DR,4858,5816,12779,0.802,551
2022-03-09T06:08:55,42.805,6.029,CST-1368DR,4858,5835,12820,0.789,551
2022-03-09T06:11:57,42.805,6.029,CST-1368DR,4858,5831,12811,0.792,551
2022-03-09T06:14:59,42.805,6.029,CST-1368DR,4858,5844,12840,0.783,551
2022-03-09T06:18:00,42.805,6.029,CST-1368DR,4858,5839,12829,0.786,551
2022-03-09T06:21:02,42.805,6.029,CST-1368DR,4858,5838,12827,0.787,551
2022-03-09T06:24:03,42.805,6.029,CST-1368DR,4858,5841,12833,0.785,551
2022-03-09T06:27:05,42.805,6.029,CST-1368DR,4858,5837,12823,0.788,551
2022-03-09T06:30:07,42.805,6.029,CST-1368DR,4858,5841,12832,0.785,551
2022-03-09T06:33:08,42.805,6.029,CST-1368DR,4858,5837,12823,0.788,551
2022-03-09T06:36:10,42.805,6.029,CST-1368DR,4858,5848,12848,0.780,551
2022-03-09T06:39:11,42.805,6.029,CST-1368DR,4858,5838,12827,0.787,551
2022-03-09T06:42:13,42.805,6.029,CST-1368DR,4858,5826,12800,0.795,551
2022-03-09T06:45:14,42.805,6.029,CST-1368DR,4858,5804,12752,0.810,551
2022-03-09T06:48:16,42.805,6.029,CST-1368DR,4858,5841,12833,0.785,551
2022-03-09T06:51:18,42.805,6.029,CST-1368DR,4858,5846,12843,0.782,551
2022-03-09T06:54:19,42.805,6.029,CST-1368DR,4858,5845,12841,0.783,551
2022-03-09T06:57:21,42.805,6.029,CST-1368DR,4858,5829,12807,0.793,551
2022-03-09T07:00:22,42.805,6.029,CST-1368DR,4858,5839,12829,0.786,551
2022-03-09T07:03:24,42.805,6.029,CST-1368DR,4858,5832,12814,0.791,551
2022-03-09T07:06:26,42.805,6.029,CST-1368DR,4858,5845,12841,0.783,551
2022-03-09T07:09:27,42.805,6.029,CST-1368DR,4858,5817,12780,0.802,551
2022-03-09T07:12:29,42.805,6.029,CST-1368DR,4858,5835,12820,0.789,551
2022-03-09T07:15:30,42.805,6.029,CST-1368DR,4858,5816,12779,0.802,551
2022-03-09T07:18:32,42.805,6.029,CST-1368DR,4858,5837,12825,0.788,551
2022-03-09T07:21:33,42.805,6.029,CST-1368DR,4858,5829,12806,0.794,551
2022-03-09T07:24:35,42.805,6.029,CST-1368DR,4858,5803,12750,0.811,551
2022-03-09T07:27:37,42.805,6.029,CST-1368DR,4858,5823,12794,0.797,551
2022-03-09T07:30:38,42.805,6.029,CST-1368DR,4858,5849,12850,0.780,551
2022-03-09T07:33:40,42.805,6.029,CST-1368DR,4858,5822,12792,0.798,551
2022-03-09T07:36:41,42.805,6.029,CST-1368DR,4858,5832,12814,0.791,551
2022-03-09T07:39:43,42.805,6.029,CST-1368DR,4858,5830,12809,0.793,551
2022-03-09T07:42:44,42.805,6.029,CST-1368DR,4858,5840,12831,0.786,551
2022-03-09T07:45:46,42.805,6.029,CST-1368DR,4858,5831,12810,0.792,551
2022-03-09T07:48:48,42.805,6.029,CST-1368DR,4858,5814,12774,0.804,551
2022-03-09T07:51:49,42.805,6.029,CST-1368DR,4858,5813,12770,0.805,551
2022-03-09T07:54:51,42.805,6.029,CST-1368DR,4858,5821,12788,0.799,551
2022-03-09T07:57:52,42.805,6.029,CST-1368DR,4858,5845,12842,0.782,551
2022-03-09T08:00:54,42.805,6.029,CST-1368DR,4858,5842,12836,0.784,551
2022-03-09T08:03:56,42.805,6.029,CST-1368DR,4858,5817,12781,0.801,551
2022-03-09T08:06:57,42.805,6.029,CST-1368DR,4858,5831,12810,0.792,551
2022-03-09T08:09:59,42.805,6.029,CST-1368DR,4858,5842,12835,0.784,551
2022-03-09T08:13:00,42.805,6.029,CST-1368DR,4858,5835,12820,0.789,551
2022-03-09T08:16:02,42.805,6.029,CST-1368DR,4858,5818,12783,0.801,551
2022-03-09T08:19:03,42.805,6.029,CST-1368DR,4858,5841,12832,0.785,551
2022-03-09T08:22:05,42.805,6.029,CST-1368DR,4858,5852,12857,0.778,551
2022-03-09T08:25:07,42.805,6.029,CST-1368DR,4858,5817,12779,0.802,551
2022-03-09T08:28:08,42.805,6.029,CST-1368DR,4858,5819,12784,0.800,551
2022-03-09T08:31:10,42.805,6.029,CST-1368DR,4858,5814,12774,0.804,550
2022-03-09T08:34:11,42.805,6.029,CST-1368DR,4858,5852,12857,0.778,551
2022-03-09T08:37:13,42.805,6.029,CST-1368DR,4858,5827,12802,0.795,551
2022-03-09T08:40:15,42.805,6.029,CST-1368DR,4858,5844,12840,0.783,551
2022-03-09T08:43:16,42.805,6.029,CST-1368DR,4858,5810,12765,0.806,551
2022-03-09T08:46:18,42.805,6.029,CST-1368DR,4858,5833,12814,0.791,551
2022-03-09T08:49:19,42.805,6.029,CST-1368DR,4858,5833,12815,0.791,551
2022-03-09T08:52:21,42.805,6.029,CST-1368DR,4858,5839,12829,0.786,551
2022-03-09T08:55:22,42.805,6.029,CST-1368DR,4858,5842,12836,0.784,551
2022-03-09T08:58:24,42.805,6.029,CST-1368DR,4858,5840,12830,0.786,551
2022-03-09T09:01:26,42.805,6.029,CST-1368DR,4858,5848,12848,0.780,551
2022-03-09T09:04:27,42.805,6.029,CST-1368DR,4858,5834,12818,0.790,551
2022-03-09T09:07:29,42.805,6.029,CST-1368DR,4858,5844,12840,0.783,551
2022-03-09T09:10:30,42.805,6.029,CST-1368DR,4858,5813,12771,0.804,551
2022-03-09T09:13:32,42.805,6.029,CST-1368DR,4858,5835,12820,0.789,551
2022-03-09T09:16:33,42.805,6.029,CST-1368DR,4858,5836,12822,0.789,551
2022-03-09T09:19:35,42.805,6.029,CST-1368DR,4858,5822,12791,0.798,551
2022-03-09T09:22:37,42.805,6.029,CST-1368DR,4858,5847,12845,0.781,551
2022-03-09T09:25:38,42.805,6.029,CST-1368DR,4858,5832,12814,0.791,551
2022-03-09T09:28:40,42.805,6.029,CST-1368DR,4858,5822,12792,0.798,551
2022-03-09T09:31:41,42.805,6.029,CST-1368DR,4858,5844,12840,0.783,551
2022-03-09T09:34:43,42.805,6.029,CST-1368DR,4858,5830,12808,0.793,551
2022-03-09T09:37:45,42.805,6.029,CST-1368DR,4858,5828,12803,0.794,551
2022-03-09T09:40:46,42.805,6.029,CST-1368DR,4858,5850,12853,0.779,551
2022-03-09T09:43:48,42.805,6.029,CST-1368DR,4858,5845,12842,0.782,551
2022-03-09T09:46:49,42.805,6.029,CST-1368DR,4858,5832,12813,0.791,551
2022-03-09T09:49:51,42.805,6.029,CST-1368DR,4858,5841,12834,0.785,551
2022-03-09T09:52:52,42.805,6.029,CST-1368DR,4858,5840,12831,0.786,551
2022-03-09T09:55:54,42.805,6.029,CST-1368DR,4858,5835,12820,0.789,551
2022-03-09T09:58:56,42.805,6.029,CST-1368DR,4858,5844,12839,0.783,551
2022-03-09T10:01:57,42.805,6.029,CST-1368DR,4858,5836,12821,0.789,551
2022-03-09T10:04:59,42.805,6.029,CST-1368DR,4858,5837,12823,0.788,551
2022-03-09T10:08:00,42.805,6.029,CST-1368DR,4858,5845,12841,0.783,551
2022-03-09T10:11:02,42.805,6.029,CST-1368DR,4858,5833,12815,0.791,551
2022-03-09T10:14:04,42.805,6.029,CST-1368DR,4858,5851,12856,0.778,551
2022-03-09T10:17:05,42.805,6.029,CST-1368DR,4858,5850,12852,0.779,551
2022-03-09T10:20:07,42.805,6.029,CST-1368DR,4858,5846,12845,0.781,551
2022-03-09T10:23:08,42.805,6.029,CST-1368DR,4858,5847,12846,0.781,551
2022-03-09T10:26:10,42.805,6.029,CST-1368DR,4858,5836,12822,0.789,551
2022-03-09T10:29:11,42.805,6.029,CST-1368DR,4858,5837,12824,0.788,551
2022-03-09T10:32:13,42.805,6.029,CST-1368DR,4858,5850,12852,0.779,551
2022-03-09T10:35:15,42.805,6.029,CST-1368DR,4858,5848,12848,0.780,551
2022-03-09T10:38:16,42.805,6.029,CST-1368DR,4858,5846,12843,0.782,551
2022-03-09T10:41:18,42.805,6.029,CST-1368DR,4858,5836,12822,0.789,551
2022-03-09T10:44:19,42.805,6.029,CST-1368DR,4858,5833,12816,0.790,551
2022-03-09T10:47:21,42.805,6.029,CST-1368DR,4858,5837,12825,0.788,551
2022-03-09T10:50:22,42.805,6.029,CST-1368DR,4858,5832,12814,0.791,551
2022-03-09T10:53:24,42.805,6.029,CST-1368DR,4858,5832,12813,0.791,551
2022-03-09T10:56:26,42.805,6.029,CST-1368DR,4858,5832,12813,0.791,551
2022-03-09T10:59:27,42.805,6.029,CST-1368DR,4858,5832,12813,0.791,551
2022-03-09T11:02:29,42.805,6.029,CST-1368DR,4858,5839,12828,0.787,551
2022-03-09T11:05:30,42.805,6.029,CST-1368DR,4858,5826,12800,0.795,551
2022-03-09T11:08:32,42.805,6.029,CST-1368DR,4858,5834,12818,0.790,551
2022-03-09T11:11:34,42.805,6.029,CST-1368DR,4858,5841,12833,0.785,551
2022-03-09T11:14:35,42.805,6.029,CST-1368DR,4858,5835,12820,0.789,551
2022-03-09T11:17:37,42.805,6.029,CST-1368DR,4858,5852,12857,0.778,551
2022-03-09T11:20:38,42.805,6.029,CST-1368DR,4858,5820,12787,0.799,551
2022-03-09T11:23:40,42.805,6.029,CST-1368DR,4858,5839,12828,0.787,551
2022-03-09T11:26:41,42.805,6.029,CST-1368DR,4858,5846,12843,0.782,551
2022-03-09T11:29:43,42.805,6.029,CST-1368DR,4858,5840,12831,0.786,551
2022-03-09T11:32:45,42.805,6.029,CST-1368DR,4858,5846,12843,0.782,551
2022-03-09T11:35:46,42.805,6.029,CST-1368DR,4858,5843,12838,0.784,551
2022-03-09T11:38:48,42.805,6.029,CST-1368DR,4858,5839,12828,0.787,551
2022-03-09T11:41:49,42.805,6.029,CST-1368DR,4858,5833,12814,0.791,551
2022-03-09T11:44:51,42.805,6.029,CST-1368DR,4858,5833,12815,0.791,551
2022-03-09T11:47:52,42.805,6.029,CST-1368DR,4858,5830,12808,0.793,551
2022-03-09T11:50:54,42.805,6.029,CST-1368DR,4858,5828,12803,0.794,551
2022-03-09T11:53:56,42.805,6.029,CST-1368DR,4858,5832,12812,0.792,551
2022-03-09T11:56:57,42.805,6.029,CST-1368DR,4858,5833,12815,0.791,551
2022-03-09T11:59:59,42.805,6.029,CST-1368DR,4858,5836,12823,0.788,551
2022-03-09T12:03:00,42.805,6.029,CST-1368DR,4858,5836,12822,0.789,551
2022-03-09T12:06:02,42.805,6.029,CST-1368DR,4858,5839,12828,0.787,551
2022-03-09T12:09:04,42.805,6.029,CST-1368DR,4858,5835,12819,0.789,551
2022-03-09T12:12:05,42.805,6.029,CST-1368DR,4858,5830,12809,0.793,551
2022-03-09T12:15:07,42.805,6.029,CST-1368DR,4858,5825,12798,0.796,551
2022-03-09T12:18:08,42.805,6.029,CST-1368DR,4858,5834,12817,0.790,551
2022-03-09T12:21:10,42.805,6.029,CST-1368DR,4858,5829,12807,0.793,551
2022-03-09T12:24:11,42.805,6.029,CST-1368DR,4858,5838,12825,0.788,551
2022-03-09T12:27:13,42.805,6.029,CST-1368DR,4858,5836,12822,0.789,551
2022-03-09T12:30:15,42.805,6.029,CST-1368DR,4858,5830,12808,0.793,551
2022-03-09T12:33:16,42.805,6.029,CST-1368DR,4858,5830,12809,0.793,551
2022-03-09T12:36:18,42.805,6.029,CST-1368DR,4858,5838,12827,0.787,551
2022-03-09T12:39:19,42.805,6.029,CST-1368DR,4858,5829,12806,0.794,551
2022-03-09T12:42:21,42.805,6.029,CST-1368DR,4858,5830,12809,0.793,551
2022-03-09T12:45:23,42.805,6.029,CST-1368DR,4858,5827,12803,0.794,551
2022-03-09T12:48:24,42.805,6.029,CST-1368DR,4858,5834,12817,0.790,551
2022-03-09T12:51:26,42.805,6.029,CST-1368DR,4858,5830,12809,0.793,551
2022-03-09T12:54:27,42.805,6.029,CST-1368DR,4858,5830,12808,0.793,551
2022-03-09T12:57:29,42.805,6.029,CST-1368DR,4858,5829,12807,0.793,551
2022-03-09T13:00:30,42.805,6.029,CST-1368DR,4858,5830,12809,0.793,551
2022-03-09T13:03:32,42.805,6.029,CST-1368DR,4858,5827,12802,0.795,551
2022-03-09T13:06:34,42.805,6.029,CST-1368DR,4858,5827,12801,0.795,551
2022-03-09T13:09:35,42.805,6.029,CST-1368DR,4858,5826,12800,0.795,551
2022-03-09T13:12:37,42.805,6.029,CST-1368DR,4858,5829,12806,0.794,551
2022-03-09T13:15:38,42.805,6.029,CST-1368DR,4858,5832,12813,0.791,551
2022-03-09T13:18:40,42.805,6.029,CST-1368DR,4858,5814,12773,0.804,551
2022-03-09T13:21:41,42.805,6.029,CST-1368DR,4858,5820,12787,0.799,551
2022-03-09T13:24:43,42.805,6.029,CST-1368DR,4857,5824,12797,0.796,551
2022-03-09T13:27:45,42.805,6.029,CST-1368DR,4858,5822,12791,0.798,551
2022-03-09T13:30:46,42.805,6.029,CST-1368DR,4858,5814,12774,0.804,551
2022-03-09T13:33:48,42.805,6.029,CST-1368DR,4858,5820,12787,0.799,551
2022-03-09T13:36:49,42.805,6.029,CST-1368DR,4858,5829,12807,0.793,551
2022-03-09T13:39:51,42.805,6.029,CST-1368DR,4858,5840,12830,0.786,551
2022-03-09T13:42:53,42.805,6.029,CST-1368DR,4857,5815,12779,0.802,551
2022-03-09T13:45:54,42.805,6.029,CST-1368DR,4857,5831,12814,0.791,551
2022-03-09T13:48:56,42.805,6.029,CST-1368DR,4857,5825,12801,0.795,550
2022-03-09T13:51:57,42.805,6.029,CST-1368DR,4857,5823,12795,0.797,551
2022-03-09T13:54:59,42.805,6.029,CST-1368DR,4858,5830,12808,0.793,551
2022-03-09T13:58:00,42.805,6.029,CST-1368DR,4858,5824,12795,0.797,551
2022-03-09T14:01:02,42.805,6.029,CST-1368DR,4858,5821,12789,0.799,551
2022-03-09T14:04:04,42.805,6.029,CST-1368DR,4857,5816,12781,0.801,551
2022-03-09T14:07:05,42.805,6.029,CST-1368DR,4857,5821,12791,0.798,551
2022-03-09T14:10:07,42.805,6.029,CST-1368DR,4858,5818,12783,0.801,551
2022-03-09T14:13:08,42.805,6.029,CST-1368DR,4857,5819,12786,0.800,551
2022-03-09T14:16:10,42.805,6.029,CST-1368DR,4858,5819,12785,0.800,551
2022-03-09T14:19:11,42.805,6.029,CST-1368DR,4857,5818,12784,0.800,551
2022-03-09T14:22:13,42.805,6.029,CST-1368DR,4857,5816,12781,0.801,551
2022-03-09T14:25:15,42.805,6.029,CST-1368DR,4858,5814,12774,0.804,551
2022-03-09T14:28:16,42.805,6.029,CST-1368DR,4857,5813,12773,0.804,551
2022-03-09T14:31:18,42.805,6.029,CST-1368DR,4857,5810,12767,0.806,551
2022-03-09T14:34:19,42.805,6.029,CST-1368DR,4857,5817,12782,0.801,551
2022-03-09T14:37:21,42.805,6.029,CST-1368DR,4857,5816,12781,0.801,551
2022-03-09T14:40:23,42.805,6.029,CST-1368DR,4857,5817,12783,0.801,551
2022-03-09T14:43:24,42.805,6.029,CST-1368DR,4857,5821,12791,0.798,551
2022-03-09T14:46:26,42.805,6.029,CST-1368DR,4857,5804,12753,0.810,551
2022-03-09T14:49:27,42.805,6.029,CST-1368DR,4857,5809,12765,0.806,551
2022-03-09T14:52:29,42.805,6.029,CST-1368DR,4857,5805,12756,0.809,551
2022-03-09T14:55:30,42.805,6.029,CST-1368DR,4857,5820,12788,0.799,551
2022-03-09T14:58:32,42.805,6.029,CST-1368DR,4858,5839,12828,0.787,551
2022-03-09T15:01:34,42.805,6.029,CST-1368DR,4857,5814,12775,0.803,551
2022-03-09T15:04:35,42.805,6.029,CST-1368DR,4857,5811,12770,0.805,551
2022-03-09T15:07:37,42.805,6.029,CST-1368DR,4857,5808,12764,0.807,551
2022-03-09T15:10:38,42.805,6.029,CST-1368DR,4858,5817,12781,0.801,551
2022-03-09T15:13:40,42.805,6.029,CST-1368DR,4857,5819,12788,0.799,551
2022-03-09T15:16:42,42.805,6.029,CST-1368DR,4857,5819,12787,0.799,551
2022-03-09T15:19:43,42.805,6.029,CST-1368DR,4857,5816,12781,0.801,551
2022-03-09T15:22:45,42.805,6.029,CST-1368DR,4857,5814,12777,0.803,551
2022-03-09T15:25:46,42.805,6.029,CST-1368DR,4857,5803,12753,0.810,551
2022-03-09T15:28:48,42.805,6.029,CST-1368DR,4857,5814,12776,0.803,551
2022-03-09T15:31:49,42.805,6.029,CST-1368DR,4857,5804,12754,0.810,551
2022-03-09T15:34:51,42.805,6.029,CST-1368DR,4857,5806,12758,0.809,551
2022-03-09T15:37:53,42.805,6.029,CST-1368DR,4857,5822,12794,0.797,551
2022-03-09T15:40:54,42.805,6.029,CST-1368DR,4857,5805,12756,0.809,551
2022-03-09T15:43:56,42.805,6.029,CST-1368DR,4857,5810,12767,0.806,551
2022-03-09T15:46:57,42.805,6.029,CST-1368DR,4857,5802,12750,0.811,551
2022-03-09T15:49:59,42.805,6.029,CST-1368DR,4857,5802,12750,0.811,551
2022-03-09T15:53:00,42.805,6.029,CST-1368DR,4857,5809,12765,0.806,551
2022-03-09T15:56:02,42.805,6.029,CST-1368DR,4857,5811,12769,0.805,551
2022-03-09T15:59:04,42.805,6.029,CST-1368DR,4857,5789,12722,0.820,551
2022-03-09T16:02:05,42.805,6.029,CST-1368DR,4857,5791,12726,0.819,551
2022-03-09T16:05:07,42.805,6.029,CST-1368DR,4857,5795,12735,0.816,551
2022-03-09T16:08:08,42.805,6.029,CST-1368DR,4857,5792,12728,0.818,551
2022-03-09T16:11:10,42.805,6.029,CST-1368DR,4857,5797,12738,0.815,551
2022-03-09T16:14:12,42.805,6.029,CST-1368DR,4857,5808,12764,0.807,551
2022-03-09T16:17:13,42.805,6.029,CST-1368DR,4857,5801,12748,0.812,551
2022-03-09T16:20:15,42.805,6.029,CST-1368DR,4857,5797,12739,0.815,551
2022-03-09T16:23:16,42.805,6.029,CST-1368DR,4857,5791,12726,0.819,551
2022-03-09T16:26:18,42.805,6.029,CST-1368DR,4857,5795,12735,0.816,551
2022-03-09T16:29:19,42.805,6.029,CST-1368DR,4857,5795,12734,0.816,551
2022-03-09T16:32:21,42.805,6.029,CST-1368DR,4857,5800,12744,0.813,551
2022-03-09T16:35:23,42.805,6.029,CST-1368DR,4857,5809,12765,0.806,551
2022-03-09T16:38:24,42.805,6.029,CST-1368DR,4857,5812,12771,0.804,551
2022-03-09T16:41:26,42.805,6.029,CST-1368DR,4857,5797,12739,0.815,551
2022-03-09T16:44:27,42.805,6.029,CST-1368DR,4857,5793,12730,0.817,551
2022-03-09T16:47:29,42.805,6.029,CST-1368DR,4857,5792,12728,0.818,551
2022-03-09T16:50:30,42.805,6.029,CST-1368DR,4857,5807,12761,0.808,551
2022-03-09T16:53:32,42.805,6.029,CST-1368DR,4857,5793,12730,0.817,551
2022-03-09T16:56:34,42.805,6.029,CST-1368DR,4857,5790,12722,0.820,551